Temperature
23 22 22 22 25 26 25 29 32 33 33 33 33 32 31 29 28 26 25 25 23 23 23 22 22 21 21 20 20 20 20 19 19 19 19 19 19 19 19 19 19 19 18 18 18 18 18 19 19
23 22 23 26 27 25 25 29 31 33 33 33 33 32 30 28 27 26 25 24 23 23 23 22 22 21 21 20 20 20 20 19 19 19 19 19 19 19 19 19 19 19 19 19 19 19 19 19 19
23 23 26 29 29 28 28 31 32 34 33 33 32 31 29 28 27 26 24 23 22 22 22 22 22 21 21 20 20 20 20 19 19 19 19 19 19 19 19 19 19 19 19 19 19 19 19 19 19
22 25 28 30 30 31 32 33 33 34 33 33 32 29 27 26 26 25 24 23 22 21 22 22 22 21 21 20 20 20 20 19 19 19 19 19 19 19 19 19 19 19 18 19 19 19 19 19 19
24 27 29 30 31 31 32 33 33 33 32 32 31 28 26 25 25 25 24 24 23 21 22 22 21 21 21 20 20 20 20 19 19 19 19 19 19 19 19 19 19 19 19 19 19 19 19 19 19
27 30 29 30 31 32 32 33 33 33 32 31 30 28 25 25 25 25 24 24 23 21 22 22 21 21 20 20 20 20 20 20 19 19 19 19 19 19 19 19 19 19 19 19 19 19 19 19 19
28 29 30 31 32 32 33 33 33 32 32 31 29 27 24 23 24 25 24 24 23 21 22 22 21 21 20 20 20 20 20 20 20 19 19 19 19 19 19 19 19 19 19 19 19 19 19 19 19
29 30 30 31 32 33 34 33 32 32 31 30 29 27 23 23 24 24 24 24 23 21 21 21 21 21 20 20 20 20 20 20 19 19 19 19 19 19 19 19 19 19 19 19 19 19 19 19 19
29 29 30 31 32 33 33 33 32 31 30 29 28 26 24 23 24 24 24 23 22 21 20 20 20 20 20 20 20 20 20 20 19 19 19 19 19 18 19 18 18 18 19 19 19 19 19 19 19
30 29 31 32 33 33 33 32 32 31 29 27 26 24 24 24 23 24 24 23 22 21 20 20 20 20 19 19 19 19 19 19 19 19 19 19 18 18 18 18 18 18 18 18 18 19 18 18 18
31 31 32 32 32 32 32 32 31 30 28 26 24 24 23 23 23 23 23 23 22 21 21 20 20 20 19 19 19 19 19 19 19 18 18 18 18 18 18 18 18 18 18 18 18 18 18 18 18
31 32 32 32 32 31 31 31 30 29 27 25 24 24 23 23 23 23 22 22 21 21 20 20 20 20 19 19 19 19 19 19 19 18 18 18 18 18 18 18 18 18 18 18 18 18 18 18 17
31 32 32 31 31 31 30 29 28 27 26 25 24 24 23 23 22 22 22 21 21 21 20 20 19 19 19 19 19 19 19 19 18 18 18 18 18 18 18 18 18 18 18 17 17 17 17 17 17
31 31 31 31 31 30 29 27 27 26 25 25 24 23 22 22 22 21 21 21 20 20 20 19 19 19 19 19 19 19 18 18 18 18 18 18 18 18 18 18 18 18 17 17 17 17 17 17 17
31 31 30 30 30 29 29 26 25 25 25 25 24 23 22 21 21 21 21 20 21 20 20 19 19 19 19 19 18 18 18 18 18 18 17 17 17 17 17 17 17 17 17 17 17 17 17 17 17
30 29 28 29 29 29 28 24 23 24 24 24 23 22 21 21 20 20 20 20 20 20 19 19 18 19 19 18 18 18 18 18 18 17 17 17 17 17 17 17 17 17 17 16 16 16 16 16 16
29 28 28 28 30 29 27 23 23 23 24 23 23 22 21 20 20 20 20 20 19 19 19 19 18 18 18 18 18 18 18 18 17 17 17 17 17 17 17 16 16 16 16 16 16 16 16 16 16
29 29 29 28 29 29 26 24 24 24 24 23 22 22 21 20 20 19 20 19 19 19 19 18 18 18 18 18 18 18 18 18 17 17 17 17 16 16 16 16 16 16 16 16 16 16 15 15 16
31 30 29 29 29 28 27 25 25 25 24 23 22 21 21 20 20 19 19 19 19 19 18 18 18 18 18 18 18 17 17 17 17 17 17 16 16 16 16 16 16 15 15 15 15 15 15 15 15
30 29 28 29 29 28 25 24 24 25 25 24 23 22 21 20 20 20 19 19 19 18 18 18 18 18 18 18 17 17 17 17 17 17 17 16 16 16 15 15 15 15 15 15 15 14 14 14 15
30 29 29 29 28 27 25 23 23 24 25 24 23 22 22 21 20 20 20 19 19 18 18 18 18 18 18 17 17 17 17 17 17 17 16 16 16 15 15 15 15 14 14 14 14 14 14 14 14
29 30 29 29 27 25 24 22 22 23 24 25 24 23 22 22 21 20 20 20 19 19 18 18 18 18 18 17 17 17 17 17 17 16 16 16 15 15 15 14 14 14 14 13 13 14 14 14 14
30 30 29 28 25 24 24 23 23 23 23 24 24 24 23 22 22 21 21 20 20 19 19 18 18 18 17 17 17 17 16 16 16 16 15 15 15 15 15 14 14 13 13 13 13 13 13 13 13
31 29 27 25 23 21 23 25 23 24 24 24 25 24 23 23 22 22 21 20 20 20 19 18 18 17 17 17 16 16 16 16 15 15 15 15 14 14 14 14 13 13 13 12 12 12 12 12 12
30 28 25 23 21 21 25 26 25 26 26 26 25 25 24 24 23 22 21 21 20 20 19 19 18 17 17 16 16 16 15 15 15 14 14 14 14 14 14 13 13 13 12 12 12 12 12 12 12
29 28 26 24 24 24 25 25 26 28 27 26 26 25 25 24 23 23 22 21 21 20 19 19 18 17 17 16 16 15 15 14 14 14 14 14 13 13 13 12 12 12 11 11 11 11 11 11 11
29 29 30 28 27 25 25 26 26 28 28 27 26 26 25 25 24 23 23 22 21 20 20 19 18 17 16 16 15 15 15 14 14 13 13 13 13 12 12 12 12 11 11 11 11 11 11 11 11
31 30 29 28 26 25 24 25 24 26 27 27 27 27 26 25 24 24 23 22 21 20 19 19 18 17 16 16 15 15 14 14 13 13 12 12 12 12 12 11 11 11 11 11 11 10 10 11 11
30 30 29 29 28 25 23 24 27 27 27 28 27 27 26 25 25 24 23 22 21 20 19 18 18 17 16 16 15 14 14 13 13 13 12 12 12 11 11 11 11 10 10 10 10 10 10 10 10
29 29 29 27 27 27 25 25 28 28 29 28 28 27 26 26 25 24 23 21 21 20 19 19 18 17 16 16 15 14 14 13 13 12 12 12 11 11 11 11 10 10 10 10 10 10 10 10 10
Wind_Speed
11 13 11 8 6 5 7 5 8 8 8 8 7 9 16 15 10 11 11 18 24 21 20 19 18 16 15 15 14 14 14 13 13 12 12 12 12 11 11 11 10 10 10 10 10 10 10 10 9
12 13 10 7 7 5 3 4 6 7 6 4 6 11 15 14 13 14 14 21 24 21 19 19 18 17 16 15 15 14 14 13 13 13 12 11 11 10 10 10 9 9 10 10 9 9 9 9 8
13 16 9 8 10 8 3 2 5 6 5 4 5 9 10 9 12 13 17 21 22 19 20 20 19 17 16 15 15 14 14 14 13 12 12 11 10 10 9 9 8 8 8 8 8 8 8 8 7
8 9 8 10 14 9 6 6 7 6 4 2 5 10 9 8 10 16 19 21 21 20 21 20 19 18 17 16 15 14 14 13 13 12 11 10 9 9 9 8 8 7 8 7 7 7 7 7 6
11 8 12 15 16 8 7 5 6 7 6 4 8 12 10 10 16 19 19 20 20 21 20 19 19 18 16 15 14 14 14 13 12 11 10 10 9 8 8 7 7 7 7 7 7 6 6 6 5
9 10 13 15 12 6 5 4 5 5 4 4 7 12 8 12 15 17 18 17 21 22 19 19 18 17 16 15 14 13 13 12 11 10 10 9 8 8 7 7 7 6 6 6 6 6 5 5 4
11 12 16 18 14 9 4 3 4 4 4 4 3 9 9 10 11 15 15 17 20 22 18 16 17 16 15 14 13 12 12 11 10 10 9 8 8 7 7 7 7 6 6 6 6 6 5 5 5
11 12 17 16 13 9 3 3 4 4 4 5 4 7 11 14 12 15 14 16 18 19 18 16 15 15 14 13 13 12 11 10 10 9 9 8 8 8 8 9 8 7 6 6 6 6 6 6 7
11 12 14 12 11 9 7 5 5 2 2 4 8 13 18 16 14 14 13 15 15 15 13 15 14 13 13 14 14 13 11 10 9 9 9 8 8 9 10 10 11 9 7 7 7 7 7 8 9
9 11 12 9 10 10 11 8 7 4 2 5 11 16 20 17 14 13 13 14 14 13 12 11 12 10 9 10 12 11 10 11 10 9 10 8 6 4 5 10 11 9 8 8 8 8 8 9 10
10 11 11 11 10 10 11 9 6 4 1 4 9 13 15 15 13 12 11 13 11 10 10 10 9 6 6 6 7 5 6 8 7 6 7 5 2 0 3 6 7 7 8 7 7 8 8 8 7
9 10 10 10 9 9 9 7 6 5 5 9 10 12 11 11 10 10 11 12 12 9 9 9 9 6 5 5 4 3 3 4 3 5 3 2 1 1 2 1 1 2 3 3 3 5 5 6 6
10 10 10 9 8 7 6 4 3 5 5 9 12 12 12 10 8 7 9 11 10 9 9 9 7 6 5 4 2 3 3 3 4 5 3 2 1 1 1 1 2 2 2 2 1 2 3 4 6
10 10 11 10 8 5 2 3 2 3 5 7 11 13 12 9 8 8 9 10 11 10 9 9 7 6 5 4 3 2 3 4 4 5 5 3 2 2 1 1 0 2 2 2 3 4 3 4 5
11 11 11 10 8 4 1 1 1 1 5 7 11 12 14 11 7 8 8 9 9 9 10 8 7 7 6 4 2 2 3 3 3 4 4 3 3 2 0 1 1 1 2 3 4 4 4 4 5
13 10 9 9 8 3 1 1 2 4 5 7 11 12 12 11 8 7 8 9 9 9 8 6 6 7 6 5 3 2 2 2 3 3 4 4 2 0 1 1 0 2 3 2 2 2 2 3 3
12 9 8 6 4 1 2 3 4 4 5 7 10 10 9 9 9 8 8 9 9 9 8 7 6 6 6 5 3 2 1 2 2 4 5 3 1 1 2 1 1 3 2 2 3 2 2 3 4
10 7 4 3 1 1 3 4 7 5 7 8 8 9 8 9 8 8 9 10 9 9 8 7 6 6 4 4 2 1 2 1 2 3 4 4 1 2 3 1 2 3 2 2 3 3 3 4 4
10 9 8 5 2 2 2 4 6 6 8 9 9 9 7 8 9 9 9 10 9 8 8 7 7 5 3 3 1 1 1 1 2 3 5 3 2 2 2 2 1 2 2 2 3 3 5 5 4
9 8 7 5 3 0 4 4 2 4 8 8 10 10 10 10 10 9 9 9 8 8 8 8 7 5 3 3 1 1 1 1 1 3 3 2 1 1 2 2 3 3 3 3 3 3 3 5 4
9 8 7 7 4 2 3 1 1 2 5 8 9 10 11 12 11 10 10 9 9 9 8 7 7 5 3 2 1 0 0 1 0 1 1 1 0 1 2 2 3 3 5 4 3 3 4 4 5
7 7 9 9 4 1 3 1 3 6 5 7 9 10 11 12 12 11 11 10 9 9 9 8 7 5 3 1 1 1 1 1 2 1 1 2 2 2 3 3 2 2 4 6 6 4 4 4 5
8 7 8 9 5 2 4 2 4 7 6 7 9 10 11 12 12 12 11 10 9 9 9 9 7 5 3 1 1 2 3 3 3 4 3 3 3 4 4 3 1 1 3 5 5 6 5 5 5
7 7 5 6 4 3 8 4 5 6 10 11 11 12 12 12 12 12 11 9 8 8 8 9 8 5 3 2 0 1 3 4 5 5 4 4 3 3 2 1 2 2 3 5 5 5 6 5 6
8 8 4 2 0 5 8 1 5 8 11 13 13 13 13 13 12 12 11 10 8 8 7 7 8 6 3 2 0 1 2 4 5 4 4 4 4 4 5 5 4 3 4 5 5 6 6 6 7
8 8 6 5 3 2 3 4 7 11 12 13 13 13 13 13 12 12 12 10 9 8 8 7 8 5 3 1 2 1 2 3 3 5 5 5 4 4 5 5 4 5 5 6 5 5 7 6 6
6 7 8 7 6 3 2 7 8 9 12 13 13 13 12 12 13 12 11 10 9 8 7 6 7 5 3 1 0 3 2 1 3 3 5 4 4 6 6 6 6 6 6 6 6 5 7 7 7
8 9 7 5 4 2 0 3 7 10 12 12 12 12 12 11 12 11 9 8 8 7 7 6 5 4 2 2 2 2 2 2 2 3 4 4 5 5 6 6 6 7 7 7 6 6 7 7 7
8 7 5 6 5 3 1 1 7 11 12 13 13 12 12 12 11 11 10 10 8 7 7 6 5 4 3 2 1 1 2 3 3 3 4 4 4 5 6 6 7 6 7 7 6 7 8 8 8
10 7 5 5 5 4 1 2 6 8 10 11 12 12 12 11 11 12 11 10 8 7 6 5 4 3 2 2 1 2 2 2 3 4 4 5 5 6 6 6 7 7 7 6 6 7 8 8 8
Wind_Direction
216 229 230 246 248 249 293 332 18 25 46 39 36 52 66 58 68 103 128 117 115 121 126 125 121 121 124 128 131 133 132 129 127 125 123 120 117 114 110 107 104 100 95 92 91 90 90 90 89
233 237 240 248 249 260 280 334 7 20 37 41 64 72 76 69 83 111 119 115 117 123 131 125 121 120 121 125 127 130 131 131 130 128 126 125 121 119 116 112 109 104 101 99 97 95 93 94 93
253 257 261 254 260 274 264 350 12 14 29 40 68 70 67 80 92 112 120 121 120 124 122 123 124 121 121 122 124 127 128 130 130 129 129 128 127 125 122 120 117 112 108 105 103 103 102 101 100
252 246 243 260 275 290 307 355 2 355 13 38 88 86 73 67 102 117 127 124 123 123 122 126 125 123 123 122 123 125 127 129 129 130 130 130 130 130 128 128 125 121 120 117 114 113 113 114 113
245 261 258 266 274 294 320 342 359 352 348 359 82 98 98 91 109 125 131 128 128 121 123 128 127 125 125 125 125 126 127 129 132 133 134 135 136 135 133 135 134 131 130 131 128 126 127 130 133
257 263 271 277 281 280 274 337 354 357 340 347 95 109 100 114 125 135 134 135 126 123 125 128 128 128 127 128 129 130 132 135 137 140 142 145 145 144 145 147 147 146 145 146 145 143 146 150 157
263 279 281 283 286 281 281 355 343 338 325 352 46 106 114 109 129 130 133 132 124 123 127 135 136 135 135 135 136 139 141 143 146 149 153 158 162 165 167 167 164 162 162 160 161 165 170 177 188
264 281 281 282 285 288 331 349 319 321 349 359 15 106 126 140 147 134 137 121 120 124 134 138 142 143 148 148 148 150 152 154 159 164 169 177 183 187 189 187 184 179 176 176 177 185 194 199 208
260 266 274 290 310 323 339 325 312 341 47 32 56 96 128 142 142 139 131 119 117 123 130 139 142 151 159 158 155 159 164 169 174 181 189 196 206 199 195 199 182 185 187 190 194 200 207 213 219
249 262 280 316 323 322 319 314 304 298 40 78 82 104 126 138 143 141 137 131 124 125 132 136 140 153 158 150 149 170 172 173 190 189 188 205 223 216 181 167 173 185 197 205 209 212 217 225 228
260 275 303 309 313 314 305 311 312 321 7 85 116 124 134 138 140 143 136 128 127 132 132 134 133 132 129 127 151 156 150 155 188 178 175 191 212 157 111 143 166 193 205 214 211 216 227 234 243
263 283 289 295 307 300 298 313 329 22 62 101 120 123 129 132 134 137 131 131 135 140 127 125 125 113 97 108 127 114 117 135 137 130 139 152 117 59 65 88 151 211 211 207 218 218 236 251 258
269 273 278 283 284 290 308 341 338 50 62 103 114 122 123 120 117 119 131 133 139 133 123 113 110 107 90 78 68 87 77 85 93 102 96 77 78 57 55 38 17 307 287 242 239 256 255 262 257
299 303 305 294 290 292 335 16 336 97 106 109 103 103 103 105 116 134 139 136 142 137 128 121 120 110 96 90 73 67 84 77 71 77 77 56 59 49 25 306 266 296 306 307 283 263 248 241 248
303 297 294 290 292 287 41 34 83 76 120 117 113 109 103 97 96 111 126 128 130 129 123 126 131 118 114 108 88 88 98 116 108 108 99 71 70 71 287 259 226 276 270 257 254 260 257 249 250
297 284 279 278 273 273 304 84 113 201 155 133 120 108 103 101 102 106 108 106 102 104 107 112 121 119 115 100 78 69 70 102 109 124 115 91 76 31 265 271 80 325 284 259 251 238 273 284 283
272 262 263 260 267 310 70 133 202 188 130 111 115 117 117 116 108 106 111 106 107 109 110 105 101 114 112 113 118 123 107 72 109 112 108 114 118 3 356 37 46 319 313 317 323 32 339 306 292
296 304 305 293 319 355 90 133 144 144 128 126 126 127 126 124 118 115 108 112 117 119 119 120 116 110 112 110 120 129 98 98 122 116 122 128 124 43 7 314 57 348 334 348 1 342 313 287 271
310 322 335 320 314 337 95 124 136 138 133 138 132 128 127 123 123 123 124 126 125 125 129 130 126 125 132 121 125 118 110 193 159 138 125 110 76 53 343 343 348 301 335 351 331 333 314 301 292
312 314 306 293 275 20 69 73 79 131 140 143 140 141 142 139 137 136 136 134 133 137 137 133 131 135 135 118 122 176 122 257 119 93 116 128 114 2 300 29 327 336 334 291 286 280 283 302 314
314 307 303 303 309 65 89 73 126 204 147 143 147 150 152 150 151 150 145 142 142 141 141 134 129 130 128 127 158 70 100 267 101 117 153 137 39 330 332 315 307 330 316 309 326 296 290 293 300
298 302 302 296 302 293 218 192 195 201 179 165 160 159 156 149 152 153 152 149 149 147 140 129 129 131 134 139 49 336 301 342 359 10 52 44 338 298 285 281 299 325 317 316 310 334 331 310 300
302 314 321 333 357 357 266 198 193 184 176 180 167 161 155 154 155 155 152 153 154 151 143 141 141 141 140 148 62 336 344 354 3 9 358 340 290 263 255 247 257 316 298 305 321 321 314 305 297
296 299 329 340 12 309 253 230 166 181 180 180 172 163 161 161 157 153 150 152 155 153 153 150 143 145 151 183 233 354 344 349 336 323 311 307 305 301 306 322 44 341 314 318 314 306 295 287 290
291 290 299 339 284 242 251 212 135 154 163 168 165 164 167 163 159 157 157 163 165 162 150 138 137 145 159 177 81 15 3 325 296 304 325 334 323 329 26 22 12 336 318 303 289 287 282 283 285
273 274 278 292 272 225 224 125 129 138 145 151 159 164 168 165 162 165 167 169 171 161 148 142 136 138 141 122 87 20 334 312 342 12 350 324 320 339 5 351 332 315 303 300 308 305 290 283 282
281 285 288 287 300 316 157 119 121 140 144 153 163 167 171 170 167 170 168 165 161 149 142 131 128 128 126 120 168 241 238 297 325 327 302 314 348 326 347 341 323 310 303 300 298 288 290 290 285
264 279 285 294 305 327 329 153 160 170 165 167 170 171 169 173 168 162 151 141 130 126 123 120 126 135 159 214 257 301 16 306 303 300 308 305 303 310 315 309 305 300 298 294 290 288 285 289 285
267 263 293 308 315 334 2 314 166 180 175 175 179 178 173 177 167 153 145 139 141 143 145 146 155 165 178 202 195 298 285 305 308 290 288 302 310 307 297 294 294 293 290 286 284 284 284 283 282
300 281 265 282 307 305 320 128 149 170 170 175 174 172 170 170 159 154 150 149 154 158 161 160 163 177 184 178 186 249 271 294 305 307 318 315 305 299 296 297 295 291 291 292 292 290 292 292 290
Height
1512 1511 1511 1513 1510 1507 1505 1486 1473 1471 1469 1471 1471 1472 1479 1485 1491 1505 1506 1507 1508 1510 1514 1518 1522 1526 1529 1532 1535 1538 1540 1542 1544 1546 1547 1549 1550 1551 1552 1553 1555 1556 1557 1558 1558 1559 1560 1561 1562
1511 1511 1513 1510 1504 1513 1508 1486 1477 1471 1470 1471 1472 1476 1481 1488 1494 1500 1505 1508 1508 1511 1515 1519 1523 1527 1530 1533 1536 1539 1541 1543 1545 1547 1548 1550 1551 1552 1553 1555 1556 1557 1558 1559 1560 1561 1561 1562 1563
1511 1512 1512 1500 1495 1498 1495 1478 1473 1470 1471 1472 1474 1478 1485 1492 1497 1501 1505 1508 1510 1513 1516 1520 1524 1528 1531 1534 1537 1540 1542 1544 1546 1548 1549 1551 1552 1553 1555 1556 1557 1558 1559 1560 1561 1562 1563 1563 1565
1512 1512 1507 1496 1491 1482 1478 1473 1471 1471 1472 1472 1474 1484 1492 1496 1499 1502 1506 1509 1512 1514 1517 1521 1525 1529 1532 1535 1538 1541 1543 1545 1547 1549 1550 1552 1553 1554 1556 1557 1558 1559 1560 1561 1562 1563 1564 1565 1566
1513 1509 1500 1495 1487 1480 1476 1473 1474 1473 1475 1474 1476 1487 1495 1499 1500 1503 1508 1511 1514 1516 1519 1523 1527 1530 1533 1536 1539 1541 1543 1545 1547 1549 1551 1552 1554 1555 1556 1557 1559 1560 1561 1562 1563 1564 1565 1566 1567
1511 1502 1501 1496 1484 1476 1475 1475 1475 1475 1477 1477 1480 1487 1497 1500 1502 1505 1509 1513 1515 1517 1520 1524 1528 1531 1534 1537 1539 1542 1544 1546 1548 1550 1551 1553 1554 1555 1557 1558 1559 1560 1561 1562 1563 1564 1565 1566 1567
1510 1502 1498 1490 1482 1476 1472 1474 1476 1477 1478 1479 1481 1487 1496 1500 1504 1507 1510 1514 1517 1519 1522 1525 1529 1532 1535 1537 1540 1542 1544 1546 1548 1550 1551 1553 1554 1556 1557 1558 1559 1560 1561 1562 1563 1564 1565 1566 1567
1506 1501 1496 1487 1481 1476 1472 1475 1477 1479 1480 1482 1483 1487 1499 1500 1504 1509 1512 1515 1518 1521 1524 1527 1530 1533 1535 1538 1541 1543 1545 1547 1549 1550 1552 1553 1554 1556 1557 1558 1559 1560 1561 1562 1563 1564 1565 1566 1567
1503 1503 1498 1486 1480 1475 1473 1475 1478 1479 1482 1485 1486 1488 1496 1502 1506 1510 1513 1517 1520 1524 1527 1529 1531 1534 1536 1539 1541 1543 1545 1547 1549 1550 1552 1553 1554 1555 1557 1558 1559 1560 1561 1562 1562 1563 1564 1565 1566
1499 1499 1490 1482 1479 1478 1477 1477 1479 1480 1484 1488 1492 1494 1497 1503 1507 1511 1513 1517 1521 1525 1528 1531 1533 1535 1538 1540 1541 1543 1545 1547 1549 1550 1552 1553 1555 1556 1557 1557 1558 1559 1560 1561 1561 1562 1563 1564 1565
1493 1491 1486 1483 1481 1481 1480 1478 1479 1481 1486 1489 1494 1498 1501 1505 1509 1512 1515 1518 1522 1526 1529 1531 1534 1536 1539 1541 1542 1544 1545 1547 1548 1550 1551 1553 1554 1555 1556 1557 1557 1558 1559 1559 1560 1560 1561 1562 1563
1491 1488 1486 1484 1483 1482 1481 1481 1482 1485 1491 1494 1495 1499 1503 1506 1511 1514 1516 1519 1522 1526 1529 1531 1534 1536 1539 1540 1542 1545 1546 1547 1547 1549 1550 1552 1553 1554 1555 1555 1556 1557 1558 1558 1559 1559 1560 1560 1561
1487 1486 1484 1483 1483 1482 1483 1484 1487 1489 1493 1495 1496 1500 1503 1507 1511 1515 1518 1520 1522 1526 1530 1532 1534 1536 1538 1540 1542 1544 1545 1546 1547 1548 1549 1551 1551 1552 1553 1553 1555 1555 1556 1556 1556 1557 1558 1558 1559
1487 1484 1483 1482 1481 1481 1484 1488 1491 1491 1494 1496 1497 1501 1505 1507 1511 1516 1519 1521 1523 1526 1529 1532 1534 1536 1537 1539 1541 1542 1544 1545 1546 1547 1548 1549 1550 1550 1551 1552 1552 1553 1554 1554 1554 1554 1555 1555 1556
1487 1486 1485 1482 1481 1482 1485 1492 1495 1496 1495 1497 1499 1503 1506 1509 1510 1515 1519 1521 1524 1527 1529 1532 1534 1535 1537 1539 1541 1542 1544 1545 1546 1547 1547 1548 1549 1549 1549 1550 1550 1551 1551 1551 1552 1552 1552 1553 1553
1489 1490 1494 1485 1481 1481 1488 1503 1498 1497 1496 1498 1501 1504 1507 1511 1513 1515 1519 1521 1524 1527 1529 1532 1535 1536 1537 1538 1540 1542 1543 1544 1545 1546 1546 1546 1547 1548 1548 1548 1549 1549 1549 1550 1550 1550 1550 1550 1550
1491 1495 1493 1487 1480 1482 1488 1501 1499 1496 1497 1499 1502 1505 1508 1512 1514 1516 1519 1522 1525 1528 1530 1532 1534 1536 1537 1538 1540 1541 1542 1543 1544 1545 1545 1545 1546 1547 1547 1547 1547 1548 1548 1548 1548 1547 1547 1547 1547
1489 1487 1487 1487 1480 1481 1489 1497 1497 1496 1497 1501 1504 1507 1509 1513 1515 1517 1519 1522 1526 1528 1530 1532 1534 1535 1537 1538 1540 1541 1542 1543 1544 1545 1544 1545 1545 1546 1546 1546 1546 1546 1546 1546 1545 1545 1545 1544 1544
1479 1482 1487 1484 1478 1482 1489 1494 1495 1496 1499 1502 1505 1508 1511 1513 1516 1519 1522 1525 1527 1528 1530 1532 1534 1535 1538 1539 1540 1541 1542 1543 1544 1544 1544 1544 1544 1545 1545 1545 1544 1544 1544 1544 1543 1543 1542 1542 1542
1479 1485 1487 1482 1478 1483 1493 1498 1496 1497 1500 1502 1505 1509 1512 1515 1518 1520 1523 1525 1527 1528 1530 1532 1534 1536 1537 1539 1540 1541 1542 1543 1544 1544 1543 1543 1543 1543 1544 1543 1542 1542 1542 1541 1541 1540 1539 1539 1539
1481 1484 1484 1484 1481 1485 1497 1505 1502 1501 1501 1503 1506 1509 1512 1515 1518 1521 1524 1525 1527 1529 1530 1532 1534 1535 1537 1538 1540 1541 1542 1542 1543 1542 1542 1542 1541 1541 1541 1540 1539 1539 1539 1539 1538 1538 1537 1537 1537
1486 1477 1478 1480 1488 1500 1501 1518 1508 1501 1501 1501 1504 1508 1511 1514 1518 1521 1524 1526 1527 1529 1530 1532 1533 1535 1536 1538 1539 1540 1541 1541 1542 1541 1541 1540 1539 1539 1538 1537 1537 1536 1535 1535 1535 1535 1534 1534 1534
1477 1474 1479 1484 1495 1505 1503 1510 1510 1499 1503 1501 1503 1506 1510 1513 1517 1520 1522 1525 1527 1529 1530 1531 1533 1534 1535 1536 1537 1538 1539 1539 1539 1539 1538 1538 1537 1536 1535 1534 1533 1532 1532 1532 1531 1531 1530 1530 1530
1472 1476 1484 1492 1504 1523 1505 1503 1510 1498 1497 1499 1501 1504 1508 1512 1515 1519 1522 1524 1527 1529 1530 1531 1532 1533 1534 1535 1536 1536 1536 1536 1536 1536 1536 1535 1535 1534 1534 1532 1530 1529 1529 1528 1528 1527 1526 1526 1526
1475 1486 1504 1518 1528 1523 1493 1494 1498 1487 1488 1493 1497 1502 1506 1510 1514 1518 1520 1523 1526 1528 1530 1531 1531 1532 1533 1534 1534 1534 1534 1534 1534 1533 1533 1532 1532 1532 1531 1529 1528 1527 1526 1525 1524 1524 1523 1523 1523
1474 1480 1500 1516 1517 1509 1493 1497 1489 1481 1486 1491 1496 1500 1504 1508 1512 1516 1519 1522 1524 1527 1528 1530 1530 1532 1532 1533 1533 1532 1532 1532 1532 1531 1530 1530 1529 1529 1527 1526 1525 1523 1522 1522 1521 1520 1519 1519 1519
1474 1474 1470 1483 1490 1502 1497 1492 1488 1482 1486 1490 1494 1498 1502 1506 1510 1514 1517 1520 1523 1525 1527 1529 1529 1530 1531 1531 1531 1531 1530 1530 1529 1528 1528 1527 1526 1525 1524 1522 1521 1520 1519 1518 1517 1516 1516 1515 1515
1465 1466 1471 1482 1499 1511 1506 1498 1498 1489 1487 1488 1492 1495 1500 1504 1508 1512 1516 1519 1522 1524 1526 1527 1528 1529 1529 1529 1529 1530 1528 1528 1527 1526 1525 1524 1523 1521 1520 1519 1517 1516 1515 1514 1513 1512 1512 1512 1511
1469 1469 1471 1475 1480 1503 1521 1509 1480 1482 1482 1485 1489 1493 1497 1502 1506 1510 1514 1518 1521 1523 1525 1526 1527 1527 1528 1528 1527 1527 1526 1526 1525 1523 1522 1521 1520 1518 1516 1515 1514 1513 1512 1511 1510 1509 1508 1507 1507
1469 1469 1472 1486 1489 1487 1498 1500 1474 1475 1478 1481 1485 1490 1494 1499 1503 1508 1512 1516 1519 1522 1523 1524 1525 1526 1526 1526 1525 1525 1524 1523 1522 1521 1519 1518 1516 1515 1513 1512 1511 1509 1508 1507 1506 1505 1504 1503 1502